• In France
  • List of Countries
  • For 7 days
  • Water Temperature
  • Satellite Maps
  • Weather Map
  • Weather Widgets
  • user-avatar
    Login

    Hourly Weather Alajuela

    Today, 20 February, Tuesday

    Time Temperature Precipitation Wind Pressure Humidity
    00:00 +18°C° 0 mm 2 mps 681 mmHg 79%
    01:00 +18°C° 0 mm 2 mps 681 mmHg 79%
    02:00 +17°C° 0 mm 2 mps 681 mmHg 78%
    03:00 +17°C° 0 mm 2 mps 680 mmHg 78%
    04:00 +17°C° 0 mm 2 mps 680 mmHg 77%
    05:00 +17°C° 0 mm 2 mps 681 mmHg 76%
    06:00 +16°C° 0 mm 2 mps 681 mmHg 74%
    07:00 +19°C° 0 mm 2 mps 682 mmHg 64%
    08:00 +23°C° 0 mm 2 mps 683 mmHg 53%
    09:00 +26°C° 0 mm 2 mps 684 mmHg 42%
    10:00 +27°C° 0 mm 2 mps 684 mmHg 41%
    11:00 +29°C° 0 mm 3 mps 684 mmHg 40%
    12:00 +30°C° 0 mm 3 mps 684 mmHg 38%
    13:00 +29°C° 0 mm 3 mps 683 mmHg 43%
    14:00 +29°C° 0 mm 3 mps 682 mmHg 47%
    15:00 +28°C° 0 mm 3 mps 682 mmHg 51%
    16:00 +26°C° 0 mm 2 mps 681 mmHg 61%
    17:00 +23°C° 0 mm 2 mps 681 mmHg 71%
    18:00 +21°C° 0 mm 1 mps 681 mmHg 81%
    19:00 +20°C° 0 mm 1 mps 681 mmHg 81%
    20:00 +20°C° 0 mm 1 mps 681 mmHg 81%
    21:00 +18°C° 0 mm 2 mps 682 mmHg 81%
    22:00 +18°C° 0 mm 2 mps 682 mmHg 80%
    23:00 +18°C° 0 mm 2 mps 682 mmHg 80%

    Tomorrow, 21 February, Wednesday

    Time Temperature Precipitation Wind Pressure Humidity
    00:00 +18°C° 0 mm 2 mps 682 mmHg 79%
    01:00 +19°C° 0 mm 2 mps 681 mmHg 80%
    02:00 +19°C° 0 mm 2 mps 681 mmHg 80%
    03:00 +19°C° 0 mm 2 mps 681 mmHg 81%
    04:00 +19°C° 0 mm 2 mps 681 mmHg 81%
    05:00 +19°C° 0 mm 1 mps 681 mmHg 82%
    06:00 +19°C° 0 mm 1 mps 681 mmHg 83%
    07:00 +20°C° 0 mm 2 mps 682 mmHg 74%
    08:00 +24°C° 0 mm 2 mps 683 mmHg 65%
    09:00 +26°C° 0 mm 2 mps 684 mmHg 56%
    10:00 +27°C° 0 mm 2 mps 684 mmHg 53%
    11:00 +28°C° 0 mm 3 mps 684 mmHg 50%
    12:00 +30°C° 0 mm 3 mps 684 mmHg 47%
    13:00 +28°C° 0.1 mm 3 mps 683 mmHg 52%
    14:00 +27°C° 0.1 mm 2 mps 682 mmHg 58%
    15:00 +26°C° 0.1 mm 2 mps 681 mmHg 64%
    16:00 +24°C° 0.2 mm 2 mps 681 mmHg 71%
    17:00 +23°C° 0.2 mm 1 mps 681 mmHg 78%
    18:00 +21°C° 0.2 mm 1 mps 681 mmHg 85%
    19:00 +21°C° 0 mm 1 mps 682 mmHg 85%
    20:00 +20°C° 0 mm 1 mps 682 mmHg 85%
    21:00 +20°C° 0 mm 1 mps 683 mmHg 86%
    22:00 +20°C° 0 mm 1 mps 682 mmHg 85%
    23:00 +20°C° 0 mm 1 mps 682 mmHg 84%

    Day after tomorrow, 22 February, Thursday

    Time Temperature Precipitation Wind Pressure Humidity
    00:00 +20°C° 0 mm 1 mps 682 mmHg 83%
    01:00 +20°C° 0 mm 1 mps 682 mmHg 83%
    02:00 +20°C° 0 mm 1 mps 681 mmHg 84%
    03:00 +20°C° 0 mm 1 mps 681 mmHg 85%
    04:00 +20°C° 0 mm 1 mps 681 mmHg 84%
    05:00 +19°C° 0 mm 2 mps 681 mmHg 84%
    06:00 +19°C° 0 mm 2 mps 682 mmHg 83%
    07:00 +21°C° 0 mm 2 mps 683 mmHg 75%
    08:00 +23°C° 0 mm 2 mps 684 mmHg 67%
    09:00 +25°C° 0 mm 2 mps 684 mmHg 59%
    10:00 +27°C° 0 mm 3 mps 684 mmHg 55%
    11:00 +28°C° 0 mm 3 mps 684 mmHg 51%
    12:00 +29°C° 0 mm 3 mps 684 mmHg 47%
    13:00 +28°C° 0.1 mm 3 mps 683 mmHg 50%
    14:00 +27°C° 0.1 mm 3 mps 682 mmHg 53%
    15:00 +26°C° 0.1 mm 3 mps 681 mmHg 55%
    16:00 +25°C° 0.1 mm 2 mps 681 mmHg 64%
    17:00 +23°C° 0.1 mm 2 mps 681 mmHg 73%
    18:00 +21°C° 0.1 mm 1 mps 681 mmHg 81%
    19:00 +20°C° 0 mm 1 mps 681 mmHg 81%
    20:00 +20°C° 0 mm 1 mps 682 mmHg 81%
    21:00 +18°C° 0 mm 2 mps 682 mmHg 81%
    22:00 +18°C° 0 mm 2 mps 682 mmHg 80%
    23:00 +18°C° 0 mm 2 mps 682 mmHg 79%

    23 February, Friday

    Time Temperature Precipitation Wind Pressure Humidity
    00:00 +18°C° 0 mm 2 mps 682 mmHg 78%
    01:00 +18°C° 0 mm 2 mps 681 mmHg 78%
    02:00 +18°C° 0 mm 2 mps 681 mmHg 79%
    03:00 +19°C° 0 mm 1 mps 681 mmHg 80%
    04:00 +18°C° 0 mm 2 mps 681 mmHg 80%
    05:00 +18°C° 0 mm 2 mps 681 mmHg 81%
    06:00 +18°C° 0 mm 2 mps 682 mmHg 81%
    07:00 +20°C° 0 mm 2 mps 682 mmHg 73%
    08:00 +23°C° 0 mm 2 mps 683 mmHg 65%
    09:00 +25°C° 0 mm 3 mps 684 mmHg 57%
    10:00 +27°C° 0 mm 3 mps 684 mmHg 52%
    11:00 +28°C° 0 mm 3 mps 684 mmHg 46%
    12:00 +30°C° 0 mm 3 mps 683 mmHg 41%
    13:00 +29°C° 0 mm 3 mps 683 mmHg 44%
    14:00 +28°C° 0 mm 3 mps 682 mmHg 47%
    15:00 +27°C° 0 mm 3 mps 681 mmHg 49%
    16:00 +25°C° 0.1 mm 2 mps 681 mmHg 59%
    17:00 +23°C° 0.1 mm 2 mps 681 mmHg 69%
    18:00 +21°C° 0.1 mm 1 mps 680 mmHg 79%
    19:00 +20°C° 0 mm 1 mps 681 mmHg 79%
    20:00 +20°C° 0 mm 1 mps 681 mmHg 80%
    21:00 +19°C° 0 mm 1 mps 681 mmHg 81%
    22:00 +19°C° 0 mm 1 mps 681 mmHg 79%
    23:00 +18°C° 0 mm 1 mps 681 mmHg 76%

    24 February, Saturday

    Time Temperature Precipitation Wind Pressure Humidity
    00:00 +18°C° 0 mm 1 mps 681 mmHg 74%
    01:00 +18°C° 0 mm 1 mps 680 mmHg 74%
    02:00 +18°C° 0 mm 1 mps 680 mmHg 74%
    03:00 +18°C° 0 mm 1 mps 680 mmHg 75%
    04:00 +18°C° 0 mm 1 mps 680 mmHg 76%
    05:00 +18°C° 0 mm 1 mps 680 mmHg 77%
    06:00 +18°C° 0 mm 1 mps 681 mmHg 78%
    07:00 +21°C° 0 mm 1 mps 682 mmHg 68%
    08:00 +24°C° 0 mm 1 mps 683 mmHg 58%
    09:00 +27°C° 0 mm 1 mps 684 mmHg 49%
    10:00 +27°C° 0 mm 2 mps 683 mmHg 47%
    11:00 +28°C° 0 mm 2 mps 683 mmHg 45%
    12:00 +29°C° 0 mm 3 mps 683 mmHg 42%
    13:00 +28°C° 0.2 mm 2 mps 682 mmHg 49%
    14:00 +27°C° 0.2 mm 2 mps 681 mmHg 55%
    15:00 +25°C° 0.2 mm 2 mps 681 mmHg 61%
    16:00 +24°C° 0.3 mm 2 mps 681 mmHg 68%
    17:00 +22°C° 0.3 mm 1 mps 681 mmHg 76%
    18:00 +21°C° 0.3 mm 1 mps 681 mmHg 84%
    19:00 +20°C° 0.1 mm 1 mps 681 mmHg 86%
    20:00 +20°C° 0.1 mm 1 mps 681 mmHg 88%
    21:00 +19°C° 0.1 mm 1 mps 682 mmHg 89%
    22:00 +19°C° 0 mm 1 mps 681 mmHg 89%
    23:00 +19°C° 0 mm 1 mps 681 mmHg 88%

    25 February, Sunday

    Time Temperature Precipitation Wind Pressure Humidity
    00:00 +18°C° 0 mm 1 mps 681 mmHg 87%
    01:00 +18°C° 0 mm 1 mps 681 mmHg 86%
    02:00 +18°C° 0 mm 1 mps 680 mmHg 85%
    03:00 +18°C° 0 mm 1 mps 680 mmHg 83%
    04:00 +18°C° 0 mm 1 mps 680 mmHg 82%
    05:00 +16°C° 0 mm 1 mps 681 mmHg 81%
    06:00 +16°C° 0 mm 1 mps 681 mmHg 80%
    07:00 +20°C° 0 mm 1 mps 682 mmHg 71%
    08:00 +23°C° 0 mm 1 mps 683 mmHg 62%
    09:00 +26°C° 0 mm 1 mps 684 mmHg 53%
    10:00 +26°C° 0.2 mm 1 mps 683 mmHg 53%
    11:00 +27°C° 0.2 mm 2 mps 683 mmHg 54%
    12:00 +27°C° 0.2 mm 2 mps 683 mmHg 54%
    13:00 +26°C° 0.5 mm 2 mps 682 mmHg 58%
    14:00 +26°C° 0.5 mm 2 mps 681 mmHg 63%
    15:00 +25°C° 0.5 mm 1 mps 681 mmHg 67%
    16:00 +23°C° 0.5 mm 1 mps 681 mmHg 73%
    17:00 +22°C° 0.5 mm 1 mps 681 mmHg 80%
    18:00 +21°C° 0.5 mm 1 mps 681 mmHg 86%
    19:00 +20°C° 0.1 mm 1 mps 681 mmHg 87%
    20:00 +20°C° 0.1 mm 1 mps 681 mmHg 89%
    21:00 +20°C° 0.1 mm 1 mps 682 mmHg 90%
    22:00 +19°C° 0 mm 1 mps 681 mmHg 90%
    23:00 +19°C° 0 mm 1 mps 681 mmHg 89%
    Show more